DW9608 Weather Reports


time (UTC)temp
C
wind
direction
speed
KPH
gust
KPH
rain 1hr
cm
rain 24hr
cm
rain mn
cm
humidity
%
barometer
mb
20260503223751 15 99 3.2 8.0 0.00 0.00 0.00 44 1014.6
20260503222720 15 135 1.6 3.2 0.00 0.00 0.00 45 1014.8
20260503221655 15 113 1.6 3.2 0.00 0.00 0.00 45 1014.8
20260503220618 15 135 3.2 3.2 0.00 0.00 0.00 44 1014.8
20260503215600 15 113 3.2 6.4 0.00 0.00 0.00 42 1014.8
20260503214530 15 135 1.6 3.2 0.00 0.00 0.00 46 1014.6
20260503213501 15 135 1.6 3.2 0.00 0.00 0.00 45 1014.8
20260503212417 15 124 4.8 6.4 0.00 0.00 0.00 43 1014.8
20260503211402 15 158 3.2 4.8 0.00 0.00 0.00 47 1014.9
20260503210331 15 113 3.2 4.8 0.00 0.00 0.00 46 1014.8
20260503205258 16 135 1.6 3.2 0.00 0.00 0.00 44 1014.8
20260503204215 16 135 3.2 3.2 0.00 0.00 0.00 39 1014.9
20260503203211 15 113 6.4 14.5 0.00 0.00 0.00 42 1014.9
20260503202122 17 123 3.2 4.8 0.00 0.00 0.00 43 1014.9
20260503201047 16 113 3.2 4.8 0.00 0.00 0.00 43 1015.3
20260503200023 16 128 3.2 3.2 0.00 0.00 0.00 45 1015.5
20260503195013 16 113 6.4 8.0 0.00 0.00 0.00 44 1015.5
20260503193933 15 158 4.8 4.8 0.00 0.00 0.00 42 1015.8
20260503192855 16 158 3.2 4.8 0.00 0.00 0.00 43 1016.0
20260503191820 16 135 6.4 8.0 0.00 0.00 0.00 44 1016.0
20260503190748 16 113 1.6 3.2 0.00 0.00 0.00 40 1016.1
20260503185726 16 189 4.8 8.0 0.00 0.00 0.00 45 1016.2
20260503184654 16 158 6.4 8.0 0.00 0.00 0.00 42 1016.4
20260503183617 16 158 3.2 4.8 0.00 0.00 0.00 43 1016.7
20260503182620 17 135 4.8 8.0 0.00 0.00 0.00 43 1016.7
20260503181516 16 113 3.2 4.8 0.00 0.00 0.00 47 1016.8
20260503180607 16 227 4.8 6.4 0.00 0.00 0.00 39 1017.0
20260503175421 16 113 3.2 4.8 0.00 0.00 0.00 45 1017.1
20260503174353 16 260 4.8 8.0 0.00 0.00 0.00 43 1017.1
20260503173333 16 113 3.2 3.2 0.00 0.00 0.00 44 1017.2
20260503172249 16 158 3.2 3.2 0.00 0.00 0.00 49 1017.5
20260503171225 16 113 4.8 6.4 0.00 0.00 0.00 50 1017.5
20260503170150 15 195 3.2 4.8 0.00 0.00 0.00 44 1017.7
20260503150616 13 158 3.2 3.2 0.00 0.00 0.00 50 1018.5
20260503131056 10 158 1.6 1.6 0.00 0.03 0.00 52 1019.1
20260503110449 0 0.0 0.0 0.00 0.13 0.00 91 1018.9
20260503100157 0 0.0 0.0 0.00 0.13 0.00 91 1018.5
20260503080619 0 0.0 0.0 0.00 0.41 0.00 90 1018.7
20260503072420 0 0.0 0.0 0.00 0.41 0.00 90 1018.7
20260503071401 0 0.0 0.0 0.00 0.41 0.00 89 1018.7
20260503070317 0 0.0 0.0 0.00 0.41 0.00 89 1018.6
20260503054950 0 0.0 0.0 0.00 0.43 0.00 86 1019.0
20260503053925 0 0.0 0.0 0.00 0.43 0.00 86 1019.0
20260503052855 0 0.0 0.0 0.00 0.43 0.00 85 1019.0
20260503051851 1 0.0 0.0 0.00 0.43 0.00 84 1019.1
20260503050749 1 0.0 0.0 0.00 0.43 0.00 82 1019.1
20260503045732 1 0.0 0.0 0.00 0.43 0.00 82 1019.1
20260503044653 1 0.0 0.0 0.00 0.46 0.00 81 1019.2
20260503043628 2 0.0 0.0 0.00 0.46 0.00 80 1019.1
20260503042559 -17 0.0 0.0 0.00 0.46 0.00 1019.2
20260503041517 3 0.0 0.0 0.00 0.48 0.00 79 1019.2
20260503040452 3 0.0 0.0 0.00 0.53 0.00 78 1019.4
20260503035418 3 0.0 0.0 0.00 0.61 0.58 78 1019.4
20260503034354 3 0.0 0.0 0.00 0.61 0.58 78 1019.4
20260503033326 -17 0.0 0.0 0.00 0.66 0.58 1019.4
20260503032251 3 0.0 0.0 0.00 0.74 0.58 78 1019.4
20260503031228 3 0.0 0.0 0.00 0.76 0.58 78 1019.4
20260503030229 3 0.0 0.0 0.00 0.76 0.58 78 1019.6
20260503025126 3 0.0 0.0 0.00 0.76 0.58 78 1019.6
20260503024056 3 0.0 0.0 0.00 0.76 0.58 78 1019.8
20260503023020 -17 0.0 0.0 0.00 0.76 0.58 1019.8
20260503021949 4 0.0 0.0 0.00 0.76 0.58 78 1019.8
20260503020920 4 0.0 0.0 0.00 0.76 0.58 77 1019.8
20260503015856 4 0.0 0.0 0.00 0.76 0.58 77 1019.8
20260503014817 4 0.0 0.0 0.00 0.76 0.58 76 1019.6
20260503013748 4 0.0 0.0 0.00 0.76 0.58 76 1019.6
20260503012718 4 0.0 0.0 0.00 0.76 0.58 76 1019.6
20260503011654 -17 0.0 0.0 0.00 0.76 0.58 1019.6
20260503010629 5 0.0 0.0 0.00 0.76 0.58 73 1019.6
20260503005553 5 0.0 0.0 0.00 0.76 0.58 72 1019.6
20260503004519 5 0.0 0.0 0.00 0.76 0.58 70 1019.6
20260503003450 5 0.0 0.0 0.00 0.76 0.58 65 1019.4
20260503002431 5 0.0 0.0 0.00 0.76 0.58 61 1019.4
20260503001411 6 0.0 0.0 0.00 0.76 0.58 61 1019.4
20260503000341 6 0.0 0.0 0.00 0.76 0.58 62 1019.4
20260502235245 6 0.0 0.0 0.00 0.76 0.58 59 1019.2
20260502234223 6 0.0 0.0 0.00 0.76 0.58 58 1019.2
20260502233146 6 0.0 0.0 0.00 0.76 0.58 55 1019.4
20260502232130 7 0.0 0.0 0.00 0.76 0.58 57 1019.4
20260502231102 7 0.0 0.0 0.00 0.76 0.58 55 1019.4
20260502230016 7 113 1.6 3.2 0.00 0.76 0.58 55 1019.4
20260502225043 7 0.0 0.0 0.00 0.76 0.58 55 1019.4